{"data":{"norad_id":66278,"intl_designator":"2025-247P","name":"STARLINK-35713","alt_names":[],"object_type":"PAYLOAD","status":"ACTIVE","operator":null,"country":"US","launch_date":"2025-10-31","launch_site_code":"AFWTR","launch_vehicle":null,"mission":null,"orbit_class":"UNKNOWN","rcs_meters":null,"size_class":null,"mass_kg":null,"dimensions":null,"purposes":["comms"],"wikipedia_slug":null,"has_3d_model":false,"image_url":null,"decayed_at":null,"tle_current":{"epoch":"2026-09-20T12:54:14.724288Z","epoch_age_seconds":93468,"freshness":"FRESH","line1":"1 66278U 25247P   26263.53767042  .00024160  00000+0  72377-3 0  9993","line2":"2 66278  53.1612   1.5803 0001248  87.7841 272.3305 15.34404476 50988","mean_motion":15.34404476,"eccentricity":0.0001248,"inclination_deg":53.1612,"raan_deg":1.5803,"arg_perigee_deg":87.7841,"mean_anomaly_deg":272.3305,"bstar":0.00072377,"rev_number":5098,"period_min":93.847484318731,"perigee_km":461.83620142248,"apogee_km":463.54367182586,"semimajor_km":6840.8269366242,"source":"CELESTRAK","updated_at":"2026-09-21T09:00:35.869508Z"}}}